Cedar Bluff, VA

2:54 PM EDT on July 25, 2016 (GMT -0400)
Tazewell County

Weather History for KJFZ - May, 2014

Change the Weather History Date:

Thursday, May 15, 2014

  Actual Average (KBLF) Record (KBLF)
Temperature  
Mean Temperature 60 °F 62 °F  
Max Temperature 72 °F 72 °F 85 °F (1998)
Min Temperature 48 °F 53 °F 36 °F (2016)
Degree Days  
Heating Degree Days 5 5  
Month to date heating degree days 84  
Since 1 July heating degree days 4514  
Cooling Degree Days 0 2  
Month to date cooling degree days 21  
Year to date cooling degree days 49  
Growing Degree Days 10 (Base 50)    
Moisture  
Dew Point 56 °F    
Average Humidity 84    
Maximum Humidity 94    
Minimum Humidity 53    
Precipitation  
Precipitation 1.22 in 0.14 in 1.83 in (2014)
Month to date precipitation 2.00  
Year to date precipitation 14.51  
Snow  
Snow 0.00 in - - ()
Month to date snowfall  
Since 1 July snowfall  
Snow Depth -    
Sea Level Pressure  
Sea Level Pressure 29.99 in    
Wind  
Wind Speed 8 mph (South)    
Max Wind Speed 13 mph    
Max Gust Speed 23 mph    
Visibility 7 miles    
Events Rain    
T = Trace of Precipitation, MM = Missing Value Source: NWS Daily Summary

Daily Weather History Graph

Daily Weather History Graph

Search for Another Location

Airport or City:

Trip Planner

Search our weather history database for the weather conditions in past years. The results will help you decide how hot, cold, wet, or windy it might be!

Date:

Astronomy

May. 15, 2014 Rise Set
Actual Time 6:19 AM EDT 8:28 PM EDT
Civil Twilight 5:49 AM EDT 8:57 PM EDT
Nautical Twilight 5:14 AM EDT 9:33 PM EDT
Astronomical Twilight 4:36 AM EDT 10:11 PM EDT
Moon 9:35 PM EDT (5/15) 7:04 AM EDT (5/15)
Length of Visible Light 15h 07m
Length of Day
14h 09m
Full, 99% of the Moon is Illuminated
May 15
Full
May 21
Last Quarter
May 28
New
Jun 5
First Quarter
Jun 13
Full

Hourly Weather History & Observations

Time (EDT) Temp. Dew Point Humidity Pressure Visibility Wind Dir Wind Speed Gust Speed Precip Events Conditions
12:15 AM 72.9 °F 55.0 °F 53% 30.05 in 10.0 mi SSE 10.4 mph 20.7 mph N/A   Clear
12:35 AM 72.5 °F 55.2 °F 54% 30.04 in 10.0 mi SE 10.4 mph 19.6 mph N/A   Clear
12:55 AM 72.5 °F 55.4 °F 55% 30.03 in 10.0 mi SE 10.4 mph 18.4 mph N/A   Mostly Cloudy
1:15 AM 71.8 °F 55.8 °F 57% 30.01 in 10.0 mi SE 12.7 mph 20.7 mph N/A   Scattered Clouds
1:35 AM 71.6 °F 56.3 °F 58% 30.01 in 10.0 mi SE 8.1 mph 21.9 mph N/A   Clear
1:55 AM 71.2 °F 56.7 °F 60% 30.00 in 10.0 mi SSE 12.7 mph 23.0 mph N/A   Scattered Clouds
2:15 AM 71.2 °F 56.7 °F 60% 29.99 in 10.0 mi SE 12.7 mph 21.9 mph N/A   Mostly Cloudy
2:35 AM 71.1 °F 56.7 °F 60% 29.99 in 10.0 mi SSE 11.5 mph 20.7 mph N/A   Mostly Cloudy
2:55 AM 70.9 °F 55.6 °F 58% 29.98 in 10.0 mi SSE 12.7 mph 21.9 mph N/A   Mostly Cloudy
3:15 AM 69.1 °F 57.0 °F 65% 29.98 in 10.0 mi SSE 12.7 mph 19.6 mph N/A Rain Light Rain
3:35 AM 66.6 °F 59.2 °F 77% 29.97 in 7.0 mi SE 8.1 mph 23.0 mph 0.01 in Rain Light Rain
3:55 AM 64.4 °F 60.3 °F 86% 29.96 in 7.0 mi SE 9.2 mph - 0.06 in Rain Rain
4:15 AM 64.4 °F 60.8 °F 88% 29.97 in 7.0 mi SSE 6.9 mph - 0.04 in Rain Rain
4:35 AM 63.9 °F 61.3 °F 91% 29.97 in 3.0 mi SE 5.8 mph 16.1 mph 0.14 in Rain Heavy Rain
4:55 AM 63.9 °F 61.3 °F 91% 29.96 in 5.0 mi SE 5.8 mph - 0.20 in Rain Rain
5:15 AM 63.9 °F 61.7 °F 93% 29.96 in 5.0 mi SE 8.1 mph - 0.04 in Rain Rain
5:35 AM 64.0 °F 61.7 °F 92% 29.97 in 4.0 mi South 4.6 mph - 0.13 in Rain Heavy Rain
5:55 AM 63.7 °F 61.7 °F 93% 29.96 in 0.2 mi SE 9.2 mph - 0.35 in Rain Rain
6:15 AM 63.9 °F 61.9 °F 93% 29.98 in 4.0 mi SSE 8.1 mph - 0.05 in Rain Rain
6:35 AM 64.8 °F 61.9 °F 90% 29.96 in 5.0 mi SSE 8.1 mph - 0.11 in Rain Rain
6:55 AM 65.3 °F 61.7 °F 88% 29.96 in 10.0 mi SSE 4.6 mph - 0.15 in Rain Rain
7:15 AM 65.1 °F 61.2 °F 87% 29.96 in 10.0 mi South 5.8 mph - 0.02 in Rain Rain
7:35 AM 64.4 °F 61.2 °F 89% 29.95 in 10.0 mi SSE 8.1 mph - 0.04 in Rain Light Rain
7:55 AM 64.6 °F 60.4 °F 86% 29.96 in 10.0 mi South 5.8 mph - 0.04 in Rain Rain
8:15 AM 64.6 °F 61.2 °F 89% 29.96 in 10.0 mi South 4.6 mph - 0.01 in Rain Light Rain
8:35 AM 65.1 °F 61.2 °F 87% 29.94 in 10.0 mi SSE 4.6 mph - 0.01 in   Drizzle
8:55 AM 64.8 °F 61.7 °F 90% 29.95 in 10.0 mi South 8.1 mph - 0.02 in Rain Light Rain
9:15 AM 66.2 °F 60.6 °F 82% 29.96 in 10.0 mi SSW 5.8 mph - 0.01 in Rain Light Rain
9:35 AM 65.5 °F 61.3 °F 86% 29.96 in 10.0 mi Calm Calm - 0.01 in Rain Light Rain
9:55 AM 65.3 °F 62.2 °F 90% 29.94 in 10.0 mi SSE 9.2 mph - 0.01 in Rain Rain
10:15 AM 65.3 °F 61.5 °F 88% 29.95 in 10.0 mi SE 9.2 mph - N/A   Light Drizzle
10:35 AM 66.2 °F 61.3 °F 84% 29.96 in 10.0 mi SSE 3.5 mph - N/A   Overcast
10:55 AM 66.9 °F 61.2 °F 82% 29.96 in 10.0 mi SSE 3.5 mph - N/A   Overcast
11:15 AM 66.6 °F 62.1 °F 85% 29.96 in 10.0 mi SSE 5.8 mph - N/A   Overcast
11:35 AM 68.0 °F 61.0 °F 78% 29.96 in 10.0 mi South 5.8 mph - N/A   Overcast
11:55 AM 67.1 °F 60.3 °F 79% 29.97 in 10.0 mi SSW 9.2 mph 16.1 mph N/A Rain Rain
12:15 PM 66.6 °F 61.9 °F 85% 29.96 in 7.0 mi SSE 5.8 mph - N/A Rain Light Rain
12:35 PM 68.4 °F 62.8 °F 82% 29.96 in 10.0 mi South 4.6 mph - N/A   Mostly Cloudy
12:55 PM 71.6 °F 63.1 °F 75% 29.94 in 10.0 mi South 10.4 mph - N/A   Scattered Clouds
1:35 PM 70.3 °F 62.2 °F 75% 29.93 in 10.0 mi SSE 5.8 mph - N/A   Overcast
1:55 PM 68.7 °F 61.9 °F 79% 29.94 in 10.0 mi SW 5.8 mph - 0.01 in Rain Rain
2:15 PM 61.0 °F 58.1 °F 90% 29.95 in 4.0 mi NW 11.5 mph 20.7 mph 0.08 in Rain Heavy Rain
3:15 PM 58.3 °F 56.5 °F 94% 29.97 in 1.2 mi NW 8.1 mph - 0.02 in Rain Light Rain
3:55 PM 57.9 °F 55.9 °F 93% 29.97 in 3.0 mi WNW 5.8 mph - 0.14 in Rain Rain
4:15 PM 57.2 °F 55.4 °F 94% 29.98 in 0.8 mi NNW 6.9 mph - N/A   Heavy Drizzle
4:35 PM 56.7 °F 54.9 °F 94% 29.98 in 1.5 mi NW 8.1 mph - 0.03 in Rain Light Rain
4:55 PM 55.8 °F 54.0 °F 94% 29.99 in 1.5 mi WNW 6.9 mph - 0.04 in Rain Light Rain
5:15 PM 55.2 °F 53.1 °F 92% 30.00 in 4.0 mi NW 9.2 mph - N/A   Drizzle
5:35 PM 54.1 °F 52.2 °F 93% 30.01 in 3.0 mi NW 5.8 mph - 0.02 in Rain Light Rain
5:55 PM 54.0 °F 52.0 °F 93% 30.01 in 7.0 mi NW 5.8 mph - 0.04 in Rain Rain
6:15 PM 53.8 °F 52.0 °F 94% 30.00 in 1.8 mi NW 5.8 mph - 0.03 in Rain Rain
6:35 PM 53.8 °F 52.0 °F 94% 30.01 in 2.0 mi WNW 6.9 mph - 0.03 in Rain Rain
6:55 PM 53.8 °F 52.0 °F 94% 30.01 in 2.0 mi WNW 8.1 mph - 0.05 in Rain Rain
7:15 PM 52.5 °F 50.5 °F 93% 30.02 in 2.5 mi NW 9.2 mph 17.3 mph 0.01 in Rain Rain
7:35 PM 51.6 °F 49.6 °F 93% 30.02 in 2.0 mi WNW 9.2 mph - 0.03 in Rain Light Rain
7:55 PM 50.0 °F 48.0 °F 93% 30.04 in 5.0 mi NW 11.5 mph 19.6 mph 0.03 in   Light Drizzle
8:15 PM 49.6 °F 47.5 °F 92% 30.04 in 5.0 mi NW 8.1 mph - N/A   Overcast
8:35 PM 49.1 °F 46.8 °F 92% 30.05 in 10.0 mi NW 5.8 mph - N/A   Overcast
8:55 PM 49.1 °F 46.6 °F 91% 30.05 in 10.0 mi NW 5.8 mph - N/A   Overcast
9:15 PM 49.1 °F 46.8 °F 92% 30.05 in 10.0 mi NW 3.5 mph - N/A   Overcast
9:55 PM 49.1 °F 46.8 °F 92% 30.05 in 10.0 mi WNW 3.5 mph - N/A   Overcast
10:15 PM 49.1 °F 46.9 °F 92% 30.05 in 7.0 mi North 4.6 mph - N/A   Overcast
10:35 PM 49.1 °F 46.6 °F 91% 30.05 in 10.0 mi NW 4.6 mph - N/A   Overcast
10:55 PM 48.6 °F 45.9 °F 90% 30.05 in 10.0 mi NW 6.9 mph - N/A   Overcast
11:15 PM 48.4 °F 45.9 °F 91% 30.05 in 10.0 mi NW 3.5 mph - N/A   Overcast
11:35 PM 48.4 °F 45.7 °F 90% 30.05 in 10.0 mi NW 3.5 mph - N/A   Overcast
11:55 PM 48.2 °F 45.9 °F 92% 30.05 in 10.0 mi Calm Calm - N/A   Overcast